Zurück zum Katalog

COSMOS 1275 DEB

AktivPO
NORAD 13808·DEBRIS·🇷🇺 Russia

Gestartet Jun 4, 1981 von Plesetsk Cosmodrome

Loading…

Nächste Überflüge (nächste 24 Stunden)

TLE

AktuellSource: Space-Track

Epoche: Sep 14, 2026, 19:44 UTC

1 13808U 81053HC  26257.82249431  .00000918  00000-0  67269-3 0  9993
2 13808  83.0284 271.5895 0058050 226.1427 309.9626 13.94090158202779

Verfolge COSMOS 1275 DEB in Echtzeit mit AllMySat

Download on the App Store